Location: Acheville
(50.3840°N, 2.8827°E)
Time: 23:49:16
(UTC+00:00)

FENGYUN 1C DEB - Pass Details

Date: 10 February 2023
Orbit: 634 x 940 km, 98.3° (Epoch: 28 March)

Event Time Altitude Azimuth Distance (km) Brightness Sun altitude
Rises 04:58:11 0° 33° (NNE) 2,956 ? -21.3°
Reaches altitude 10° 05:01:53 10° 66° (ENE) 2,067 ? -20.7°
Maximum altitude 05:03:32 12° 88° (E) 1,963 ? -20.5°
Drops below altitude 10° 05:05:11 10° 109° (ESE) 2,100 ? -20.2°
Sets 05:09:01 0° 141° (SE) 3,068 ? -19.6°
